Dewpoint
-15 -15 -15 -15 -15 -15 -14 -14 -12 -11 -11 -11 -11 -9 1 7 8 10 10 11 10 9 10 8 6 6 6 3 2 2 -0 -5 -8
-15 -14 -14 -14 -15 -15 -15 -15 -13 -12 -10 -10 -9 -4 5 8 10 10 11 11 11 8 10 10 9 9 10 9 9 10 9 8 8
-13 -13 -13 -13 -13 -13 -13 -13 -12 -11 -9 -8 -8 -1 9 11 10 11 10 10 8 7 10 10 10 10 10 10 10 10 9 9 9
-14 -13 -13 -13 -13 -12 -12 -12 -11 -10 -9 -7 -5 8 10 10 10 10 9 9 7 5 9 10 10 9 9 9 9 8 7 6 6
-12 -12 -13 -12 -12 -11 -11 -11 -10 -9 -8 -6 -3 6 8 8 9 9 9 8 8 7 7 9 9 9 8 7 8 7 7 6 6
-11 -11 -11 -12 -12 -11 -12 -11 -10 -9 -8 -6 -1 7 7 8 8 8 7 5 9 7 6 9 9 8 7 5 4 3 3 1 -3
-12 -12 -12 -12 -12 -12 -12 -11 -9 -1 -3 -3 5 5 6 7 8 7 6 6 7 7 5 6 8 8 6 1 -4 -4 -3 -4 -5
-11 -11 -11 -11 -11 -11 -10 -9 -0 3 5 5 5 5 5 6 -1 0 0 -2 3 5 4 6 7 6 4 -2 -7 -10 -10 -8 -7
-9 -9 -10 -10 -8 -8 -0 -0 -7 -2 5 5 5 5 5 5 -2 -4 -5 -8 -10 1 3 4 6 6 6 1 -12 -12 -12 -11 -9
-10 -10 -10 -11 -10 -8 -6 -1 -2 1 5 5 5 4 4 4 -0 -6 -10 -14 -14 -11 -10 -3 4 5 6 1 -11 -12 -12 -12 -12
-10 -10 -11 -11 -11 -10 -6 -1 1 0 5 5 5 4 2 2 3 -7 -11 -12 -12 -11 -10 -10 -9 -7 -3 -3 -7 -9 -9 -10 -11
-10 -11 -11 -11 -11 -10 -9 -4 1 2 4 5 5 4 4 1 -4 -4 -6 -8 -8 -8 -8 -7 -7 -6 -6 -5 -5 -6 -6 -6 -6
-10 -11 -11 -11 -10 -10 -9 -7 1 4 5 5 3 2 1 0 -3 -4 -5 -4 -4 -7 -7 -6 -6 -5 -5 -5 -5 -5 -4 -4 -4
-10 -11 -11 -10 -10 -9 -9 -8 -6 -1 4 4 3 5 2 -0 2 -2 -5 -5 -6 -6 -6 -6 -5 -5 -5 -4 -4 -4 -4 -4 -4
-10 -10 -10 -10 -10 -9 -9 -9 -8 -3 -2 4 4 4 4 3 5 3 -3 -4 -4 -5 -5 -5 -5 -5 -5 -5 -5 -5 -5 -4 -4
-10 -10 -10 -10 -10 -9 -9 -9 -8 -8 -7 -5 -2 -0 0 5 5 4 -1 -4 -3 -4 -4 -4 -5 -5 -5 -5 -4 -4 -4 -4 -5
-10 -10 -10 -10 -10 -9 -9 -9 -8 -8 -8 -0 -0 1 4 2 -0 -3 -2 -2 -2 -2 -3 -4 -6 -5 -4 -4 -6 -10 -15 -18 -19
-10 -10 -9 -9 -10 -9 -9 -9 -9 -8 -8 -8 -2 -2 -2 2 -1 -3 -1 -2 -2 -2 -4 -4 -4 -4 -9 -15 -21 -23 -26 -27 -27
-9 -9 -9 -9 -9 -9 -9 -9 -9 -8 -8 -8 -7 -6 -5 -2 -1 -1 -2 -3 -2 -3 -3 -3 -7 -8 -13 -21 -23 -31 -31 -31 -31
-9 -9 -9 -9 -9 -9 -9 -9 -8 -8 -7 -7 -6 -6 -6 -6 -4 -3 -2 -2 -2 -2 -3 -10 -11 -9 -15 -24 -27 -29 -30 -31 -32
Wind_Speed
15 14 14 14 14 14 14 13 13 13 13 13 14 14 18 15 14 15 14 17 17 15 15 18 18 18 18 17 16 15 13 11 9
14 14 14 14 13 13 13 12 12 13 13 14 14 16 20 14 14 9 17 14 14 13 16 15 16 16 16 16 15 15 14 15 14
13 13 13 13 12 12 12 11 11 11 12 13 14 16 21 10 10 11 10 7 7 9 13 15 14 13 15 13 13 12 12 13 14
12 12 12 12 11 11 11 11 11 11 12 13 16 21 17 11 12 10 7 5 6 5 10 11 9 8 8 8 7 7 7 8 8
11 10 11 11 11 10 10 10 10 10 11 13 16 18 18 10 11 9 9 9 12 7 6 10 6 6 2 4 5 7 6 7 6
9 10 10 10 10 10 10 9 10 9 10 12 13 14 10 9 6 8 4 6 11 11 9 8 6 5 5 5 7 9 7 8 9
10 10 10 10 10 10 9 9 9 10 8 11 12 9 9 8 5 8 2 8 11 11 10 8 8 8 8 10 10 9 10 10 10
10 10 10 10 9 9 9 9 8 8 7 7 7 9 9 6 5 7 4 5 9 10 10 10 10 10 12 13 12 12 12 12 11
10 9 10 10 9 9 9 7 8 9 9 8 8 8 8 6 6 7 6 6 8 10 10 11 11 10 11 12 13 13 13 12 12
11 10 9 10 10 9 9 8 8 9 9 9 9 9 9 8 5 7 7 7 7 8 9 9 10 11 11 12 12 12 12 12 13
11 10 10 10 10 10 10 9 9 8 8 8 8 7 7 7 7 5 7 7 7 8 8 8 8 9 9 11 12 13 13 13 13
12 11 10 10 10 9 10 10 9 8 8 7 7 7 6 6 6 5 4 5 6 6 6 7 8 9 9 10 11 12 13 13 14
11 11 11 10 10 9 9 9 8 7 7 5 5 5 5 5 4 3 3 3 2 4 5 6 7 9 10 10 11 12 13 14 15
12 11 11 10 10 9 8 8 8 8 7 5 4 4 3 3 3 1 1 0 1 3 4 6 7 9 10 11 12 13 14 15 16
12 12 11 11 10 9 8 7 8 8 7 6 4 3 3 3 2 2 4 3 4 4 6 8 11 12 13 14 14 15 16 17 17
12 12 11 11 10 9 8 7 6 6 7 5 3 3 4 5 4 4 7 6 7 8 9 11 13 15 17 16 17 18 19 19 19
12 12 12 12 10 9 9 8 7 6 7 5 5 3 4 6 7 7 9 8 9 11 11 14 16 17 17 20 21 20 20 20 20
13 13 12 12 11 10 9 8 8 7 7 7 6 3 3 5 8 8 8 9 7 10 13 14 17 18 18 20 22 22 23 23 23
15 14 14 12 11 10 10 9 8 7 7 6 7 8 7 2 3 6 7 10 8 11 12 14 15 15 20 21 24 25 24 24 26
16 15 14 12 12 11 10 9 9 8 7 7 5 5 5 6 4 5 4 6 8 11 17 16 17 16 21 22 25 23 27 28 27
Wind_Direction
108 106 102 100 100 101 103 103 100 97 97 96 95 94 87 82 80 67 67 69 61 55 51 52 52 56 55 57 56 51 45 39 33
112 109 105 102 101 102 102 102 101 100 100 99 97 97 92 84 83 99 93 87 72 67 65 56 57 59 59 61 61 59 50 49 46
117 115 112 109 108 107 107 106 105 105 101 98 98 97 86 93 92 92 85 66 62 68 73 70 70 67 74 75 73 69 63 58 59
122 120 117 113 114 114 113 111 107 103 101 99 100 102 100 88 102 83 65 38 40 89 78 82 72 77 75 70 59 50 41 45 44
123 121 118 116 115 112 109 107 104 103 102 102 106 94 86 77 57 83 71 51 59 98 115 82 69 59 13 358 333 324 334 345 339
121 116 116 112 111 110 107 104 102 103 103 103 103 86 95 94 80 80 64 34 65 66 80 91 67 24 330 348 340 333 340 349 353
128 125 121 116 114 110 108 107 105 94 94 98 79 93 99 100 96 111 96 56 61 61 67 68 64 41 2 3 13 17 18 14 9
132 130 125 119 119 111 108 105 104 128 128 109 112 109 105 96 84 92 85 56 59 62 57 64 59 45 37 34 32 33 30 28 25
141 140 133 127 121 123 123 120 117 115 112 114 109 104 104 99 77 86 77 67 66 65 62 65 58 51 41 37 33 30 29 25 23
151 146 143 139 136 131 124 120 118 123 124 119 112 106 105 107 77 84 77 72 68 63 59 63 60 52 43 28 28 25 22 19 17
157 152 148 143 139 138 133 133 132 123 125 125 124 120 115 111 111 79 78 71 67 63 59 54 48 39 31 20 14 14 14 10 7
161 159 155 152 144 140 138 136 133 134 132 129 128 123 116 110 109 106 69 77 63 51 42 36 30 22 15 11 5 0 1 0 358
168 166 164 160 155 147 143 140 137 131 134 133 137 137 128 130 118 106 116 118 24 36 24 19 12 8 4 358 353 351 349 347 347
176 175 170 167 162 157 151 150 148 148 148 146 147 144 151 141 142 170 203 236 322 335 350 352 352 349 343 339 337 335 334 334 334
184 180 176 174 171 167 164 161 159 159 159 150 162 161 184 169 171 235 265 278 284 302 321 331 333 334 330 329 327 325 323 323 321
189 187 183 182 179 179 177 172 172 175 171 168 193 215 211 208 234 234 269 281 281 297 305 315 323 324 323 322 317 316 315 315 316
196 196 195 193 189 190 191 188 190 194 192 166 200 209 241 251 244 242 260 269 281 293 300 312 316 317 316 314 311 313 313 311 308
202 204 204 201 196 199 200 200 194 207 207 208 178 219 232 184 272 264 257 266 278 292 303 313 313 312 310 308 308 313 313 309 304
207 208 207 207 208 205 206 206 210 206 221 222 224 229 230 218 239 266 276 269 271 282 295 293 305 305 304 306 308 314 311 308 306
210 210 209 211 214 210 210 209 214 213 218 224 236 243 251 253 244 269 269 298 306 289 288 301 301 280 300 304 306 314 313 311 308
Height
1537 1538 1539 1540 1541 1541 1542 1543 1544 1545 1545 1546 1547 1549 1549 1552 1553 1554 1554 1554 1554 1553 1553 1552 1550 1549 1549 1549 1548 1548 1547 1547 1547
1539 1540 1541 1541 1542 1543 1544 1545 1546 1547 1548 1548 1549 1550 1552 1555 1557 1555 1555 1555 1555 1555 1554 1553 1552 1552 1551 1551 1550 1549 1549 1548 1548
1541 1542 1542 1543 1544 1545 1546 1547 1548 1549 1550 1550 1551 1553 1555 1557 1557 1556 1556 1556 1556 1556 1555 1555 1554 1553 1553 1552 1551 1551 1550 1549 1549
1542 1543 1544 1545 1546 1547 1548 1549 1550 1551 1552 1552 1554 1556 1557 1557 1557 1558 1557 1557 1556 1556 1557 1556 1555 1554 1554 1553 1553 1552 1552 1551 1551
1544 1545 1546 1547 1548 1549 1550 1551 1551 1552 1553 1554 1556 1558 1560 1561 1559 1559 1558 1557 1556 1556 1557 1557 1556 1555 1554 1554 1554 1553 1552 1551 1551
1545 1546 1547 1548 1549 1550 1551 1552 1553 1554 1555 1556 1558 1559 1562 1562 1561 1559 1558 1558 1557 1557 1556 1557 1557 1556 1555 1555 1554 1552 1551 1550 1549
1546 1548 1549 1550 1551 1551 1553 1553 1554 1555 1557 1558 1559 1561 1562 1561 1559 1558 1559 1559 1559 1558 1557 1557 1557 1556 1554 1554 1553 1552 1551 1550 1550
1548 1549 1550 1551 1552 1553 1554 1554 1556 1558 1559 1560 1560 1561 1562 1561 1559 1559 1560 1560 1560 1559 1558 1558 1558 1557 1555 1554 1553 1552 1552 1551 1550
1548 1549 1551 1552 1553 1554 1555 1556 1557 1558 1560 1561 1561 1562 1562 1562 1560 1560 1560 1560 1560 1559 1559 1559 1559 1558 1557 1555 1554 1553 1552 1551 1550
1549 1550 1551 1552 1553 1554 1555 1557 1557 1559 1560 1561 1562 1563 1563 1563 1561 1561 1560 1560 1560 1559 1559 1559 1559 1559 1558 1556 1555 1554 1553 1552 1551
1548 1550 1551 1552 1553 1554 1555 1556 1558 1559 1560 1561 1562 1562 1562 1562 1562 1561 1561 1561 1561 1560 1560 1559 1559 1559 1558 1557 1556 1556 1554 1553 1551
1548 1549 1551 1552 1553 1554 1555 1556 1558 1559 1560 1561 1562 1562 1562 1562 1562 1562 1561 1561 1561 1561 1561 1560 1560 1560 1559 1558 1557 1556 1555 1554 1552
1547 1549 1550 1552 1553 1554 1555 1556 1557 1559 1561 1562 1562 1562 1562 1562 1562 1562 1562 1562 1561 1561 1561 1560 1560 1559 1559 1558 1557 1556 1555 1553 1552
1547 1548 1550 1551 1552 1553 1554 1555 1556 1558 1560 1561 1562 1563 1563 1563 1563 1562 1561 1561 1561 1561 1560 1560 1560 1559 1558 1557 1556 1555 1554 1552 1551
1546 1547 1549 1550 1552 1553 1554 1555 1556 1557 1558 1560 1561 1562 1563 1564 1564 1562 1561 1560 1560 1560 1559 1559 1558 1557 1556 1555 1554 1553 1552 1551 1549
1545 1546 1548 1550 1551 1552 1553 1554 1556 1556 1557 1558 1559 1560 1560 1562 1563 1563 1561 1560 1560 1559 1558 1557 1557 1555 1554 1553 1551 1550 1549 1548 1546
1543 1545 1547 1547 1549 1551 1553 1554 1554 1556 1557 1558 1559 1560 1560 1559 1559 1560 1560 1559 1559 1558 1557 1555 1554 1553 1551 1549 1547 1546 1545 1543 1542
1541 1543 1546 1547 1546 1549 1551 1553 1553 1554 1555 1556 1557 1558 1558 1557 1557 1558 1558 1557 1557 1556 1555 1554 1551 1549 1547 1545 1543 1542 1540 1538 1536
1539 1542 1544 1546 1546 1547 1549 1550 1552 1552 1554 1555 1555 1555 1556 1557 1557 1556 1556 1556 1555 1554 1553 1551 1549 1546 1543 1541 1538 1537 1535 1533 1531
1537 1540 1542 1543 1545 1546 1547 1548 1550 1550 1551 1553 1554 1553 1554 1555 1555 1555 1555 1555 1555 1552 1550 1548 1546 1542 1540 1537 1534 1533 1531 1528 1525